This is the latest recevied weather packets stored in our database for station/object N2OCK. If no packets are shown the sender has not sent any weather packets the latest 10 day(s).
| Time | Temp. | Humidity | Pressure | Rain* | Wind** | Luminosity | Snow |
|---|---|---|---|---|---|---|---|
| 1777395950 | 18.89° C | 44% | 1021 hPa | 0 mm | - | 472 W/m² | - |
| 1777395646 | 18.89° C | 42% | 1021.1 hPa | 0 mm | - | 494 W/m² | - |
| 1777395343 | 20° C | 41% | 1021.2 hPa | 0 mm | - | 587 W/m² | - |
| 1777395041 | 19.44° C | 45% | 1021.2 hPa | 0 mm | - | 647 W/m² | - |
| 1777394737 | 18.89° C | 45% | 1021.3 hPa | 0 mm | - | 689 W/m² | - |
| 1777394433 | 18.89° C | 42% | 1021.5 hPa | 0 mm | - | 660 W/m² | - |
| 1777394130 | 18.89° C | 43% | 1021.5 hPa | 0 mm | - | 645 W/m² | - |
| 1777393826 | 18.89° C | 43% | 1021.5 hPa | 0 mm | - | 656 W/m² | - |
| 1777393525 | 18.89° C | 44% | 1021.5 hPa | 0 mm | - | 666 W/m² | - |
| 1777393221 | 18.33° C | 44% | 1021.4 hPa | 0 mm | - | 630 W/m² | - |
| 1777392918 | 18.89° C | 43% | 1021.5 hPa | 0 mm | - | 589 W/m² | - |
| 1777392613 | 18.89° C | 46% | 1021.4 hPa | 0 mm | - | 623 W/m² | - |
| 1777392309 | 18.89° C | 45% | 1021.5 hPa | 0 mm | - | 667 W/m² | - |
| 1777392004 | 18.89° C | 44% | 1021.7 hPa | 0 mm | - | 404 W/m² | - |
| 1777391699 | 18.33° C | 47% | 1021.8 hPa | 0 mm | - | 657 W/m² | - |
| 1777391396 | 18.33° C | 46% | 1021.5 hPa | 0 mm | - | 620 W/m² | - |
| 1777391093 | 17.78° C | 45% | 1021.8 hPa | 0 mm | - | 465 W/m² | - |
| 1777390789 | 18.33° C | 44% | 1021.7 hPa | 0 mm | - | 462 W/m² | - |
| 1777390485 | 18.33° C | 47% | 1021.8 hPa | 0 mm | - | 597 W/m² | - |
| 1777390182 | 17.78° C | 46% | 1021.8 hPa | 0 mm | - | 458 W/m² | - |
| 1777389878 | 18.33° C | 44% | 1021.8 hPa | 0 mm | - | 599 W/m² | - |
| 1777389575 | 18.89° C | 44% | 1021.9 hPa | 0 mm | - | 570 W/m² | - |
| 1777389272 | 18.89° C | 44% | 1021.8 hPa | 0 mm | - | 375 W/m² | - |
| 1777388970 | 18.89° C | 44% | 1021.7 hPa | 0 mm | - | 471 W/m² | - |
| 1777388667 | 18.89° C | 44% | 1021.7 hPa | 0 mm | - | 701 W/m² | - |
* Rain latest hour (hover to see other rain measurements)
** Current wind speed in m/s (hover to see current wind gust speed)